{"data":{"norad_id":55784,"epoch":"2026-09-20T22:00:03.000096Z","epoch_age_seconds":67015,"freshness":"FRESH","line1":"1 55784U 23028AV  26263.91670139  .00091886  00000+0  67345-2 0  9997","line2":"2 55784  70.0009  72.2828 0002348 270.0167 245.9224 15.02998105  5661","mean_motion":15.02998105,"eccentricity":0.0002348,"inclination_deg":70.0009,"raan_deg":72.2828,"arg_perigee_deg":270.0167,"mean_anomaly_deg":245.9224,"bstar":0.0067345,"rev_number":566,"period_min":95.808504030017,"perigee_km":556.02901247767,"apogee_km":559.28606159226,"semimajor_km":6935.794537035,"source":"CELESTRAK","updated_at":"2026-09-21T09:00:33.320092Z"}}